Location: ????????
(54.6908°N, 39.2554°E)
Time: 20:07:59
(UTC+00:00)

Daily predictions for brighter satellites

Satellite Brightness Start Highest point End
(mag) Time Altitude Azimuth Time Altitude Azimuth Time Altitude Azimuth
SMAP 4.1 14:59:40 10° S 15:04:14 54° W 15:08:50 10° NNW
Cosmos 724 4.5 14:58:21 10° SSW 15:04:28 70° SE 15:10:30 10° NE
Cosmos 2061 Rocket 4.0 14:58:28 10° N 15:04:53 70° ENE 15:11:10 10° SSE
Spot 4 Rocket 4.3 15:00:48 10° SE 15:05:39 45° ENE 15:10:31 10° N
NOAA 6 4.5 15:01:54 10° SE 15:06:40 40° ENE 15:11:28 10° N
ARIANE 5 R/B 2.8 15:05:07 10° S 15:10:13 74° WSW 15:15:17 10° NNW
SJ-6F 4.3 15:06:29 10° SSE 15:10:26 85° ENE 15:14:22 10° NNW
SAR-Lupe-1 4.0 15:06:58 10° SSE 15:10:29 63° ENE 15:14:03 10° N
UNK 3.7 15:06:30 10° NNE 15:11:05 86° E 15:15:41 10° SSW
CZ-4C R/B 2.1 15:07:52 10° SSW 15:12:08 55° SE 15:17:40 10° NE
Okean 1 Rocket 3.0 15:07:53 10° N 15:12:17 68° ENE 15:16:38 10° SSE
NOSS 3-4 (A) 3.8 15:06:06 10° NW 15:12:33 83° NE 15:20:12 10° SE
NOSS 3-4 (C) 3.8 15:06:22 10° NW 15:12:50 82° NE 15:20:29 10° SE
SL-16 R/B 3.1 15:07:03 10° NNE 15:13:11 63° WNW 15:19:17 10° SW
USA 290 2.3 15:11:47 10° SSW 15:14:58 80° WNW 15:18:11 10° NNE
Aureole 3 Rocket 2.7 15:15:14 10° N 15:19:19 52° ENE 15:22:32 10° SSE
Okean 2 Rocket 3.1 15:15:40 10° NNW 15:20:06 90° ENE 15:24:29 10° S
SL-16 R/B 2.7 15:15:06 10° NNW 15:20:25 39° NE 15:25:42 10° ESE
Cosmos 1378 Rocket 3.6 15:17:03 10° SSW 15:21:21 85° WNW 15:25:41 10° N
BREEZE-M DEB (TANK) 4.3 15:19:36 10° WSW 15:22:35 41° S 15:30:09 10° ESE
Cosmos 2227 Rocket 3.5 15:19:02 10° SE 15:22:56 19° E 15:26:50 10° ENE
Cosmos 1315 Rocket 3.9 15:20:15 10° NNW 15:23:55 46° W 15:27:34 10° S
Cosmos 2221 Rocket 3.7 15:22:18 10° S 15:26:39 53° E 15:31:04 10° NNE
SAR-Lupe-4 3.6 15:23:05 10° SSE 15:26:40 85° WSW 15:30:16 10° NNW
Cosmos 1025 Rocket 3.0 15:24:37 10° S 15:28:55 68° E 15:33:15 10° NNE
ATLAS 2AS CENTAUR R/B 3.4 15:23:37 10° W 15:30:14 45° NNW 15:36:45 10° NE
Cosmos 2150 Rocket 4.0 15:26:06 10° NNW 15:31:13 57° ENE 15:36:17 10° SE
Cosmos 1346 Rocket 4.3 15:29:32 10° ESE 15:31:09 13° E 15:31:09 13° E
BREEZE-M DEB (TANK) 4.4 15:27:39 10° W 15:31:40 53° S 15:46:48 10° ESE
Cosmos 2298 Rocket 4.1 15:29:54 10° NNW 15:35:09 59° ENE 15:40:22 10° SE
Sich 1 Rocket 3.8 15:32:07 10° NNW 15:36:40 79° W 15:41:14 10° S
Cosmos 2346 Rocket 4.5 15:30:57 10° S 15:37:09 67° E 15:43:21 10° NNE
SKYMED 2 3.5 15:35:45 10° NNE 15:40:07 70° ESE 15:44:27 10° S
Cosmos 1602 4.5 15:38:44 10° SE 15:40:16 17° ESE 15:40:16 17° ESE
GP-B 4.0 15:36:43 10° SSW 15:40:59 53° W 15:45:18 10° N
Resurs 1-3 3.8 15:40:02 10° S 15:44:20 76° WSW 15:48:40 10° NNW
BREEZE-M (TANK) 4.1 15:46:44 10° WSW 15:48:58 25° S 15:53:23 10° SE
USA 267 3.3 15:43:08 13° ENE 15:49:07 73° SSE 15:55:40 10° WSW
CZ-4B R/B 4.4 15:48:18 17° E 15:50:35 22° NE 15:54:31 10° N
Resurs 01 Rocket 1.6 15:47:06 10° SSE 15:51:27 63° ENE 15:55:50 10° N
ATLAS CENTAUR R/B 2.3 15:49:50 10° NNW 15:51:51 17° NNE 15:52:30 16° NE
Lacrosse 5 rocket 1.1 15:48:40 10° W 15:52:10 66° NNW 15:54:24 21° ENE
Radarsat Rocket 4.1 15:47:07 10° SSE 15:53:03 84° WSW 15:59:38 10° NNW
CZ-4 R/B 2.5 15:52:51 20° ENE 15:53:16 20° ENE 15:56:06 10° NNE
Cosmos 1782 2.9 15:53:33 10° N 15:56:59 41° ENE 16:00:24 10° SE
Cosmos 1674 Rocket 4.4 15:54:27 10° SSW 15:58:45 55° WNW 16:03:08 10° N
CSL-04 Rocket 4.1 15:54:26 10° SE 15:59:16 38° ENE 16:04:07 10° N
Cosmos 2344 4.3 15:54:34 10° S 16:00:47 27° ESE 16:04:25 18° ENE
ERS-1 Rocket 4.2 16:00:20 20° ENE 16:01:35 22° NE 16:05:22 10° N
Cosmos 2082 Rocket 4.3 15:58:12 10° NW 16:01:47 17° NNW 16:05:23 10° NNE
SL-19 R/B 4.4 15:55:51 10° SSE 16:01:58 89° WSW 16:07:49 10° NNW
CARTOSAT-1 3.5 15:58:32 10° SSE 16:02:44 83° WSW 16:06:59 10° NNW
Cosmos 1447 Rocket 4.5 15:59:02 10° S 16:05:10 90° ESE 16:11:23 10° NNE
Cosmos 2297 Rocket 2.1 16:01:09 10° SSW 16:06:47 73° ESE 16:12:27 10° NE
ARIANE 6 FM1 Upper Stage 2.4 16:03:14 10° NW 16:07:13 77° NE 16:09:27 25° ESE
Cosmos 1943 3.9 16:02:00 10° NNW 16:07:17 37° NE 16:10:06 23° E
RESURS DK-1 3.3 16:10:06 10° NNW 16:13:34 27° NE 16:14:11 26° ENE
SPOT 5 3.2 16:13:19 15° SE 16:17:07 46° ENE 16:22:02 10° N
IRAS Rocket 4.2 16:11:56 10° SSE 16:17:33 85° ENE 16:23:14 10° NNW
Cosmos 1867 4.4 16:14:21 10° WSW 16:19:37 47° NNW 16:24:09 14° NE
NOSS 3-3 (C) 3.9 16:14:39 10° SW 16:20:08 85° NW 16:25:36 16° NE
Okean O Rocket 3.4 16:24:35 16° NE 16:24:35 16° NE 16:26:21 10° NNE
SJ-6B 2.4 16:21:31 10° SSE 16:24:57 86° WSW 16:28:26 10° NNW
Cosmos 2228 3.0 16:22:33 10° NNW 16:26:45 77° W 16:30:57 10° S
COSMO-SKYMED 1 2.7 16:22:47 10° NNE 16:26:55 71° WNW 16:31:00 10° SSW
Cosmos 1816 Rocket 4.5 16:20:59 10° S 16:27:00 58° E 16:33:08 10° NNE
Cosmos 1544 Rocket 3.5 16:24:30 10° N 16:28:49 62° ENE 16:31:54 18° SSE
Cosmos 1570 Rocket 3.9 16:23:38 10° SSW 16:28:55 89° ESE 16:34:12 10° NNE
Cosmos 2034 Rocket 3.9 16:23:33 10° N 16:29:44 70° ENE 16:35:55 10° SSE
Cosmos 1607 4.4 16:25:48 10° WSW 16:31:51 58° NW 16:36:58 15° NE
Meteor 1-31 Rocket 2.4 16:32:28 57° E 16:32:44 59° ENE 16:36:09 10° N
ADEOS 4.0 16:32:23 34° E 16:33:37 39° ENE 16:38:26 10° N
Cosmos 1455 Rocket 4.4 16:29:35 10° NNW 16:33:38 41° W 16:37:40 10° SSW
Cosmos 2263 Rocket 2.7 16:28:29 10° S 16:33:39 37° ESE 16:34:55 33° E
DMSP B5D1-3 4.4 16:29:02 10° NNE 16:34:11 79° ESE 16:39:18 10° SSW
Cosmos 1634 Rocket 4.2 16:30:02 10° N 16:36:11 49° ENE 16:39:44 24° SE
Cosmos 2237 Rocket 4.0 16:32:54 10° NW 16:37:50 32° WSW 16:42:47 10° SSW
Cosmos 1975 Rocket 2.9 16:34:54 10° S 16:39:15 87° E 16:43:35 10° NNE
CZ-4B R/B 3.6 16:37:56 33° SSE 16:39:38 75° ENE 16:43:29 10° NNW
Feng Yun 1-1 Rocket 4.4 16:41:06 27° SE 16:44:16 58° ENE 16:50:04 10° NNW
Cosmos 773 Rocket 4.0 16:40:24 10° SSW 16:45:41 86° WNW 16:51:01 10° NNE
Cosmos 972 Rocket 3.9 16:41:18 10° NNW 16:46:13 62° ENE 16:47:52 41° SE
PAYLOAD B 4.3 16:44:11 32° SE 16:46:37 57° ENE 16:52:06 10° N
NOSS 3-3 (A) 4.2 16:41:12 10° WSW 16:46:42 64° NNW 16:51:18 21° NE
Cosmos 1833 Rocket 4.3 16:46:42 10° NNW 16:50:45 20° NNE 16:51:50 19° NE
Cosmos 2208 Rocket 4.0 16:45:57 10° SSW 16:51:13 84° WNW 16:56:37 10° NNE
Terra 2.4 16:52:46 38° NE 16:52:46 38° NE 16:56:37 10° N
Cosmos 2279 Rocket 4.1 16:51:19 10° N 16:57:19 49° ENE 16:58:26 44° E
BREEZE-M DEB (TANK) 4.4 16:41:43 10° WSW 17:00:21 49° S 17:02:53 34° SE
CZ-4C R/B 2.8 16:55:49 10° W 17:00:30 49° NNW 17:03:44 25° NE
Cosmos 44 Rocket 3.3 16:57:24 10° SW 17:02:23 89° NW 17:03:58 46° NE
Cosmos 2084 Rocket 4.5 17:00:37 10° NW 17:04:18 33° NNE 17:04:18 33° NNE
SL-16 R/B 2.7 16:59:14 10° NW 17:04:47 58° WSW 17:08:54 18° S
Cosmos 1346 Rocket 2.9 17:02:25 10° SSW 17:05:39 61° WSW 17:05:39 61° WSW
Cosmos 2227 Rocket 2.1 17:00:32 10° SSW 17:06:12 87° ESE 17:09:38 25° NE
MetOp-B 4.0 17:15:56 66° ESE 17:16:24 71° ENE 17:21:46 10° NNW
Cosmos 1420 Rocket 4.2 17:17:10 10° NNW 17:21:44 54° NNE 17:21:44 54° NNE
ATLAS 2AS CENTAUR R/B 3.4 17:16:03 10° WNW 17:22:30 41° N 17:24:21 35° NE
ATLAS CENTAUR R/B 3.5 17:23:11 10° NW 17:23:42 14° NW 17:23:42 14° NW
CZ-4 R/B 2.3 17:27:51 42° WNW 17:27:51 42° WNW 17:30:44 10° NNW
Resurs 01 Rocket 4.2 17:24:56 10° SW 17:28:13 20° W 17:31:32 10° NW
IRS-1A Rocket 4.2 17:29:14 67° ENE 17:29:14 67° ENE 17:34:47 10° NNW
Lacrosse 5 rocket 2.6 17:25:41 10° WNW 17:27:50 33° WNW 17:27:50 33° WNW
CZ-4B R/B 3.0 17:30:08 77° SSE 17:30:33 90° WSW 17:35:54 10° NNW
MOS 1-B 4.4 17:31:41 62° NE 17:31:41 62° NE 17:37:04 10° NNW
USA 267 3.3 17:30:29 51° ENE 17:32:14 76° N 17:38:47 10° W
ERS-1 Rocket 3.0 17:40:10 74° NW 17:40:10 74° NW 17:44:49 10° NNW
Cosmos 44 4.2 17:36:32 10° NW 17:40:56 43° N 17:40:56 43° N
Cosmos 2082 Rocket 4.1 17:44:27 10° NNW 17:48:12 18° NNE 17:48:32 17° NNE
RESURS DK-1 4.1 17:47:18 10° NW 17:49:29 30° NW 17:49:29 30° NW
Cosmos 2297 Rocket 3.7 17:46:13 10° WSW 17:51:19 33° NW 17:55:14 16° NNE
Cosmos 1943 3.4 17:46:01 10° NW 17:51:40 64° WSW 17:51:54 63° SW
Tsikada Rocket 4.1 17:46:11 10° SSW 17:52:20 72° WNW 17:58:34 10° N
SPOT 5 4.4 17:52:21 19° SSW 17:55:12 34° W 17:59:53 10° NNW
Okean O Rocket 3.6 18:01:49 23° NNW 18:01:49 23° NNW 18:03:31 10° NNW
Cosmos 1603 4.2 18:01:49 10° NNW 18:06:13 56° NW 18:06:13 56° NW
Cosmos 2344 3.3 18:06:42 10° SW 18:14:12 87° NW 18:14:28 83° NNE
Cosmos 2263 Rocket 2.9 18:11:48 10° SW 18:16:41 52° WNW 18:16:41 52° WNW
Terra 3.7 18:31:23 28° WNW 18:31:23 28° WNW 18:34:09 10° NNW
USA 281 4.4 18:34:00 31° NNE 18:34:00 31° NNE 18:38:24 10° NNW
Cosmos 1833 Rocket 4.2 18:30:35 10° NNW 18:33:30 29° N 18:33:30 29° N
CZ-4C R/B 3.7 18:44:49 10° WNW 18:48:41 34° NNW 18:48:41 34° NNW
Cosmos 2227 Rocket 3.9 18:46:01 10° W 18:50:55 29° NW 18:51:30 29° NNW
ATLAS 2AS CENTAUR R/B 3.7 19:07:31 10° NW 19:11:46 40° NW 19:11:46 40° NW
USA 267 4.3 19:17:49 40° WNW 19:17:49 40° WNW 19:21:45 10° WNW
CENTAUR R/B 4.3 23:07:19 31° NE 23:07:19 31° NE 23:11:21 10° NE
ACS3 Solar Sail 3.9 23:21:23 10° NNE 23:23:03 20° NNE 23:23:03 20° NNE
SL-16 R/B 4.3 23:43:01 26° NNE 23:43:01 26° NNE 23:46:01 10° N
Cosmos 2369 Rocket 4.3 23:52:33 22° NNE 23:52:33 22° NNE 23:54:30 10° NNE
